SYRACUSE 4B

Last updated on Thu Aug 13 2026 00:03:03 GMT+0000 (Coordinated Universal Time)

1 57214U 23093B 26224.28562885 .00000000 00000+0 00000+0 0 9994 2 57214 0.0269 107.6387 0000228 158.6183 150.8631 1.00269749 7520
UTC large
Height (km)
Speed (km/s)
/
Latitude / Longitude
Inclination (degrees)
Orbital Period (minutes)
Azimuth
Elevation
Range (km)
Doppler Factor

Next 0 passes for location: London (51.5072 / 0.1276)

No passes found over London.
SYRACUSE 4B